Flag for U.S.A. Weather past 2 weeks in Aurora, Colorado, U.S.A.

Now
76 °F

Partly sunny.


Feels Like: 78 °F
Forecast: 58 / 88 °F
Wind: 6 mph from South

Location: Buckley Air Force Base

Current Time: Aug 3, 2015 at 6:23:29 PM

Latest Report: Aug 3, 2015 at 5:58 PM


Visibility: 10 mi

Pressure: 29.87 "Hg (24.73 "Hg at 1647m altitude)

Humidity: 41%

Dew point: 51 °F

Location of AuroraLocation

Historic Weather in Aurora — Graph

°F

Aurora temperature yesterday

Maximum temperature yesterday: 91 °F (at 12:58 PM)
Minimum temperature yesterday: 62 °F (at 5:58 AM)
Average temperature yesterday: 73 °F

Past Weeks' High & Low Weather Summary

 TemperatureHumidityPressure
High93 °F (Aug 1, 2:58 PM)98% (Jul 22, 1:58 AM)30.17 "Hg (Jul 22, 1:58 AM)
Low55 °F (Jul 28, 5:58 AM)15% (Aug 1, 2:58 PM)29.59 "Hg (Jul 27, 5:58 PM)
Average73 °F47%29.92 "Hg
* Reported Jul 19 4:58 PM — Aug 3 4:58 PM, Aurora, Weather by CustomWeather, © 2015

Note: Actual official high and low records may vary slightly from our data, if they occured in-between our weather recording intervals... More about our weather records

Advertising

Aurora weather history for previous 24 hours

 ConditionsComfort  
Time TempWeatherWind HumidityBarometerVisibility
4:58 PM
Mon, Aug 3
76 °FPartly sunny.6 mph41%29.88 "Hg10 mi
3:58 PM77 °FPartly sunny.20 mph40%29.87 "Hg10 mi
2:58 PM83 °FPartly sunny.14 mph30%29.88 "Hg10 mi
1:58 PM83 °FPartly sunny.13 mph24%29.87 "Hg10 mi
12:58 PM82 °FPartly sunny.12 mph28%29.88 "Hg10 mi
11:58 AM82 °FPartly sunny.7 mph31%29.89 "Hg10 mi
10:58 AM76 °FPartly sunny.1 mph42%29.91 "Hg10 mi
9:58 AM75 °FPartly sunny.5 mph47%29.90 "Hg10 mi
8:58 AM73 °FPartly sunny.3 mph55%29.90 "Hg10 mi
7:58 AM71 °FPartly sunny.6 mph54%29.88 "Hg10 mi
6:58 AM65 °FPartly cloudy.10 mph62%29.90 "Hg10 mi
5:58 AM64 °FPassing clouds.8 mph65%29.91 "Hg10 mi
4:58 AM64 °FPassing clouds.10 mph65%29.91 "Hg10 mi
3:58 AM64 °FPassing clouds.9 mph63%29.91 "Hg10 mi
2:58 AM63 °FPassing clouds.8 mph67%29.88 "Hg10 mi
1:58 AM65 °FPassing clouds.9 mph63%29.87 "Hg10 mi
12:58 AM65 °FPassing clouds.8 mph61%29.86 "Hg10 mi
11:58 PM
Sun, Aug 2
67 °FPassing clouds.9 mph58%29.86 "Hg10 mi
10:58 PM69 °FPassing clouds.7 mph54%29.88 "Hg10 mi
9:58 PM72 °FPartly cloudy.12 mph43%29.88 "Hg10 mi
8:58 PM72 °FMore clouds than sun.12 mph42%29.88 "Hg10 mi
7:58 PM75 °FMore clouds than sun.9 mph41%29.88 "Hg10 mi
6:58 PM72 °FBroken clouds.17 mph44%29.86 "Hg10 mi
Weather by CustomWeather, © 2015

See weather overviewHow to use our weather pages